N6YV Weather Reports


Display with metric or nautical units.
time (UTC)temp
F
wind
direction
speed
MPH
gust
MPH
rain 1hr
in
rain 24hr
in
rain mn
in
humidity
%
barometer
mb
20260903183017 68 207 13.0 0.0 0.00 0.00 0.00 32 1003.6
20260903181516 69 200 11.0 0.0 0.00 0.00 0.00 31 1003.5
20260903180011 66 236 9.0 0.0 0.00 0.00 0.00 34 1003.8
20260903174510 64 190 9.0 0.0 0.00 0.00 0.00 36 1003.7
20260903173009 63 217 10.0 0.0 0.00 0.00 0.00 36 1003.7
20260903171508 63 191 7.0 0.0 0.00 0.00 0.00 36 1003.8
20260903170007 64 187 9.0 0.0 0.00 0.00 0.00 36 1003.8
20260903164506 64 267 3.0 0.0 0.00 0.00 0.00 33 1003.8
20260903163004 65 225 8.0 0.0 0.00 0.00 0.00 30 1004.0
20260903161600 63 137 5.0 0.0 0.00 0.00 0.00 30 1004.4
20260903160121 62 203 6.0 0.0 0.00 0.00 0.00 31 1004.6
20260903154606 59 184 5.0 0.0 0.00 0.00 0.00 33 1005.0
20260903153054 57 252 2.0 0.0 0.00 0.00 0.00 37 1005.3
20260903151552 56 157 4.0 0.0 0.00 0.00 0.00 36 1005.2
20260903150051 56 281 4.0 0.0 0.00 0.00 0.00 38 1005.1
20260903144557 57 309 3.0 0.0 0.00 0.00 0.00 36 1005.1
20260903143104 56 311 2.0 0.0 0.00 0.00 0.00 34 1005.0
20260903141600 57 275 2.0 0.0 0.00 0.00 0.00 32 1004.9
20260903140049 57 200 5.0 0.0 0.00 0.00 0.00 31 1005.0
20260903134552 57 213 7.0 0.0 0.00 0.00 0.00 32 1004.9
20260903133048 57 206 7.0 0.0 0.00 0.00 0.00 29 1004.8
20260903131548 57 204 9.0 0.0 0.00 0.00 0.00 26 1004.8
20260903130046 57 215 12.0 0.0 0.00 0.00 0.00 25 1004.9
20260903124545 58 196 10.0 0.0 0.00 0.00 0.00 27 1004.9
20260903123043 58 169 9.0 0.0 0.00 0.00 0.00 29 1005.0
20260903121541 58 222 13.0 0.0 0.00 0.00 0.00 27 1005.6
20260903120039 58 211 9.0 0.0 0.00 0.00 0.00 29 1005.7
20260903114544 58 218 9.0 0.0 0.00 0.00 0.00 29 1005.8
20260903113036 58 216 10.0 0.0 0.00 0.00 0.00 28 1005.8
20260903111540 58 192 10.0 0.0 0.00 0.00 0.00 32 1005.9
20260903110037 58 149 9.0 0.0 0.00 0.00 0.00 36 1006.1
20260903104533 58 191 8.0 0.0 0.00 0.00 0.00 36 1006.1
20260903103035 58 223 8.0 0.0 0.00 0.00 0.00 38 1006.2
20260903101538 58 196 10.0 0.0 0.00 0.00 0.00 38 1006.2
20260903100029 58 206 8.0 0.0 0.00 0.00 0.00 39 1006.2
20260903094529 57 207 8.0 0.0 0.00 0.00 0.00 39 1006.2
20260903093027 58 201 7.0 0.0 0.00 0.00 0.00 41 1006.4
20260903091527 58 176 9.0 0.0 0.00 0.00 0.00 39 1006.5
20260903090027 58 211 10.0 0.0 0.00 0.00 0.00 39 1006.6
20260903084525 58 202 12.0 0.0 0.00 0.00 0.00 39 1006.5
20260903083034 58 240 10.0 0.0 0.00 0.00 0.00 39 1006.5
20260903081530 56 238 6.0 0.0 0.00 0.00 0.00 37 1006.6
20260903080018 55 194 4.0 0.0 0.00 0.00 0.00 40 1006.4
20260903074515 55 311 1.0 0.0 0.00 0.00 0.00 38 1006.6
20260903073018 55 307 3.0 0.0 0.00 0.00 0.00 38 1006.5
20260903071509 57 279 2.0 0.0 0.00 0.00 0.00 35 1006.5
20260903070005 59 260 6.0 0.0 0.00 0.00 0.00 30 1006.6
20260903064504 59 294 12.0 0.0 0.00 0.00 0.00 26 1006.2
20260903063003 58 262 7.0 0.0 0.00 0.00 0.00 27 1006.2
20260903061503 58 278 5.0 0.0 0.00 0.00 0.00 34 1006.3
20260903060003 56 338 2.0 0.0 0.00 0.00 0.00 38 1006.4
20260903054503 57 338 2.0 0.0 0.00 0.00 0.00 33 1006.5
20260903053001 58 336 2.0 0.0 0.00 0.00 0.00 28 1006.7
20260903051501 58 216 6.0 0.0 0.00 0.00 0.00 33 1006.8
20260903050002 60 271 10.0 0.0 0.00 0.00 0.00 29 1006.8
20260903044559 60 269 10.0 0.0 0.00 0.00 0.00 26 1006.7
20260903043100 59 248 9.0 0.0 0.00 0.00 0.00 34 1006.5
20260903041600 59 213 8.0 0.0 0.00 0.00 0.00 40 1006.5
20260903040103 59 213 9.0 0.0 0.00 0.00 0.00 43 1006.5
20260903034558 59 261 11.0 0.0 0.00 0.00 0.00 43 1006.0
20260903033057 59 217 11.0 0.0 0.00 0.00 0.00 42 1005.9
20260903031557 59 223 9.0 0.0 0.00 0.00 0.00 40 1006.1
20260903030057 60 241 11.0 0.0 0.00 0.00 0.00 39 1006.1
20260903024557 60 217 9.0 0.0 0.00 0.00 0.00 39 1006.2
20260903023056 61 235 9.0 0.0 0.00 0.00 0.00 37 1006.2
20260903021556 61 245 9.0 0.0 0.00 0.00 0.00 36 1006.5
20260903020055 62 242 11.0 0.0 0.00 0.00 0.00 36 1006.3
20260903014555 63 242 11.0 0.0 0.00 0.00 0.00 31 1006.2
20260903013055 64 196 12.0 0.0 0.00 0.00 0.00 31 1006.2
20260903011605 65 190 10.0 0.0 0.00 0.00 0.00 30 1006.0
20260903010054 66 189 11.0 0.0 0.00 0.00 0.00 29 1006.1
20260903004553 66 232 11.0 0.0 0.00 0.00 0.00 26 1005.9
20260903003052 67 216 10.0 0.0 0.00 0.00 0.00 25 1006.0
20260903001552 68 226 10.0 0.0 0.00 0.00 0.00 26 1006.0
20260903000052 68 221 9.0 0.0 0.00 0.00 0.00 26 1006.0
20260902234552 67 248 11.0 0.0 0.00 0.00 0.00 27 1005.8
20260902233056 66 311 14.0 0.0 0.00 0.00 0.00 27 1005.8
20260902231559 66 250 14.0 0.0 0.00 0.00 0.00 27 1005.6
20260902230051 66 232 13.0 0.0 0.00 0.00 0.00 28 1005.6
20260902224557 68 220 14.0 0.0 0.00 0.00 0.00 27 1005.6
20260902223049 68 207 14.0 0.0 0.00 0.00 0.00 27 1005.7
20260902221550 69 234 12.0 0.0 0.00 0.00 0.00 25 1005.8
20260902220045 68 200 13.0 0.0 0.00 0.00 0.00 24 1006.0
20260902214543 68 192 11.0 0.0 0.00 0.00 0.00 28 1006.1
20260902213046 66 188 16.0 0.0 0.00 0.00 0.00 29 1006.3
20260902211545 65 221 11.0 0.0 0.00 0.00 0.00 31 1006.2
20260902210033 63 200 13.0 0.0 0.00 0.00 0.00 32 1006.3
20260902204532 63 211 13.0 0.0 0.00 0.00 0.00 32 1006.1
20260902203030 63 217 11.0 0.0 0.00 0.00 0.00 33 1006.3
20260902201536 62 236 14.0 0.0 0.00 0.00 0.00 32 1006.3
20260902200031 62 233 13.0 0.0 0.00 0.00 0.00 34 1006.5
20260902194526 62 243 11.0 0.0 0.00 0.00 0.00 35 1006.7
20260902193025 62 225 12.0 0.0 0.00 0.00 0.00 36 1006.7
20260902191534 61 224 12.0 0.0 0.00 0.00 0.00 37 1006.8
20260902190022 61 230 13.0 0.0 0.00 0.00 0.00 38 1006.7
20260902184520 60 238 13.0 0.0 0.00 0.00 0.00 37 1006.8